Regional Weather Roundup
Issued by NWS Lake Charles, LA

Home | Current Version | Previous Version | Text Only | Print | Product List | Glossary On
Versions: 1 2 3 4 5 6 7 8 9 10 11 12 13 14 15 16 17 18 19 20 21 22 23 24 25 26 27 28 29 30 31 32 33 34 35 36 37 38 39 40 41 42 43 44 45 46 47 48 49 50
000
ASUS44 KLCH 061610
RWRLCH
RWRLCH
REGIONAL WEATHER ROUNDUP
NATIONAL WEATHER SERVICE LAKE CHARLES LA
1100 AM CDT WED MAY 06 2015

Note: "fair" indicates few or no clouds below 12,000 feet with no
significant weather and/or obstructions to visibility.


ACROSS SOUTHEAST TEXAS

CITY           SKY/WX    TMP DP  RH WIND       PRES   REMARKS
BEAUMONT       CLOUDY    79  70  74 SE18G24   30.01S
BEAUMONT CITY  CLOUDY    77  69  76 SE12      30.03R
ORANGE         CLOUDY    78  66  67 SE8       30.04S
JASPER         NOT AVBL
$$

ACROSS CENTRAL LOUISIANA

CITY           SKY/WX    TMP DP  RH WIND       PRES   REMARKS
LEESVILLE      PTSUNNY   77  65  68 SE8       30.05R
FULLERTON        N/A     81  66  60 VRB3      30.04S
ALEXANDRIA INT MOSUNNY   77  65  66 SE9       30.06F
ESLER FIELD    PTSUNNY   78  65  63 SE9       30.08F
DERIDDER         N/A     76  65  69 SE9       30.08R
OAKDALE        CLOUDY    78  68  72 SE10      30.06F
OPELOUSAS      PTSUNNY  N/A N/A N/A SE12      30.08S
$$

ACROSS SOUTHWEST AND SOUTH CENTRAL LOUISIANA

CITY           SKY/WX    TMP DP  RH WIND       PRES   REMARKS
SULPHUR        CLOUDY    81  67  63 SE15G22   30.04F
LAKE CHARLES   CLOUDY    79  67  66 SE16      30.04S
CHENNAULT INT  PTSUNNY   79  68  69 SE10G17   30.05S
CAMERON PHI    SUNNY     77  70  78 SE17      30.06S
DEQUINCY       PTSUNNY   77  69  77 E8        30.04S
JENNINGS         N/A     78  68  71 SE13      30.06S
LAFAYETTE      MOSUNNY   79  65  62 SE9       30.07F
NEW IBERIA     MOSUNNY  N/A N/A N/A SE10      30.08S
ABBEVILLE        N/A     79  67  66 SE10      30.07S
PATTERSON      PTSUNNY  N/A N/A N/A SE10      30.09S
SALT POINT       N/A     78  68  71 SE8       30.06S
$$

SELECTED SITES ACROSS THE REGION

CITY           SKY/WX    TMP DP  RH WIND       PRES   REMARKS
HOUSTON BUSH   CLOUDY    75  71  87 SE9       29.99S
HOUSTON HOBBY  PTSUNNY   81  70  69 SE15G22   29.98S
GALVESTON      MOSUNNY   80  73  79 SE18      30.00S
COLLEGE STAT   MOSUNNY   71  67  87 S12       29.98F
CONROE         CLOUDY    73  69  87 SE8       30.01S
HUNTSVILLE     CLOUDY    74  68  81 VRB5      30.01S
LUFKIN         CLOUDY    72  67  84 SE9       30.03S
SHREVEPORT     PTSUNNY   78  66  66 S12       30.05S
MONROE         PTSUNNY   78  64  61 S7        30.10F
NATCHEZ MS     MOSUNNY   77  63  61 SE10G16   30.12S
BATON ROUGE    PTSUNNY   78  65  63 VRB7      30.09F
N.O. INTL ARPT MOSUNNY   81  62  52 SE13      30.09S
SLIDELL          N/A     78  67  68 SE8       30.10S
$$

MARINE REPORTS

STATION/POSITION TIME  TEMP    WIND        PRES    VSBY  WAVE
                       AIR SEA DIR/SP/G                  HT/PER
                 (UTC) (F)     (DEG/KT/KT) (MB)    (MI)  (FT/S)
BUOY 30 S HIGH I 1550   75 75  120/ 16/ 17 1015.5R         4/ 5
SEA RIM ST PARK  1600   76     130/ 15/ 18 1016.9S
PORT ARTHUR      1500      73  130/  9/ 15 1016.7R
SABINE PASS N    1500   75 76  140/ 18/ 21 1016.6F
TEXAS POINT      NOT AVBL
CALCASIEU PASS   1500   76 76  150/ 15/ 19   N/A
LK CHARLES BEACH 1500                      1017.6R
MARSH ISLAND     1500   74     110/ 13/ 15   N/A           0
FRESH WATER LOCK 1500           90/ 12/ 14 1017.8R
AMERADA PASS     1500          100/  7/ 10 1018.3R
$$



USA.gov is the U.S. government's official web portal to all federal, state and local government web resources and services.